Time,TemperatureF,DewpointF,PressureIn,WindDirection,WindDirectionDegrees,WindSpeedMPH,WindSpeedGustMPH,Humidity,HourlyPrecipIn,Conditions,Clouds,dailyrainin,SoftwareType,DateUTC
2013-10-13 00:00:00,35.0,-99.9,-100.00,SW,232,5.0,6.0,-999,-99.99,,,-99.99,,2013-10-13 06:00:00,
2013-10-13 00:42:00,35.0,-99.9,-100.00,SW,232,5.0,6.0,-999,-99.99,,,-99.99,,2013-10-13 06:42:00,
2013-10-13 00:52:00,35.0,-99.9,-100.00,SW,232,5.0,6.0,-999,-99.99,,,-99.99,,2013-10-13 06:52:00,
2013-10-13 01:00:00,33.0,-99.9,-100.00,SW,233,4.0,5.0,-999,-99.99,,,-99.99,,2013-10-13 07:00:00,
2013-10-13 01:42:00,33.0,-99.9,-100.00,SW,233,4.0,5.0,-999,-99.99,,,-99.99,,2013-10-13 07:42:00,
2013-10-13 01:52:00,33.0,-99.9,-100.00,SW,233,4.0,5.0,-999,-99.99,,,-99.99,,2013-10-13 07:52:00,
2013-10-13 02:00:00,33.0,-99.9,-100.00,WSW,248,5.0,5.0,-999,-99.99,,,-99.99,,2013-10-13 08:00:00,
2013-10-13 02:22:00,33.0,-99.9,-100.00,WSW,248,5.0,5.0,-999,-99.99,,,-99.99,,2013-10-13 08:22:00,
2013-10-13 02:32:00,33.0,-99.9,-100.00,WSW,248,5.0,5.0,-999,-99.99,,,-99.99,,2013-10-13 08:32:00,
2013-10-13 02:42:00,33.0,-99.9,-100.00,WSW,248,5.0,5.0,-999,-99.99,,,-99.99,,2013-10-13 08:42:00,
2013-10-13 02:52:00,33.0,-99.9,-100.00,WSW,248,5.0,5.0,-999,-99.99,,,-99.99,,2013-10-13 08:52:00,
2013-10-13 04:00:00,34.0,-99.9,-100.00,SW,232,2.0,3.0,-999,-99.99,,,-99.99,,2013-10-13 10:00:00,
2013-10-13 04:43:00,34.0,-99.9,-100.00,SW,232,2.0,3.0,-999,-99.99,,,-99.99,,2013-10-13 10:43:00,
2013-10-13 04:53:00,34.0,-99.9,-100.00,SW,232,2.0,3.0,-999,-99.99,,,-99.99,,2013-10-13 10:53:00,
2013-10-13 05:00:00,34.0,-99.9,-100.00,SSW,208,4.0,4.0,-999,-99.99,,,-99.99,,2013-10-13 11:00:00,
2013-10-13 05:22:00,34.0,-99.9,-100.00,SSW,208,4.0,4.0,-999,-99.99,,,-99.99,,2013-10-13 11:22:00,
2013-10-13 05:33:00,34.0,-99.9,-100.00,SSW,208,4.0,4.0,-999,-99.99,,,-99.99,,2013-10-13 11:33:00,
2013-10-13 05:42:00,34.0,-99.9,-100.00,SSW,208,4.0,4.0,-999,-99.99,,,-99.99,,2013-10-13 11:42:00,
2013-10-13 05:52:00,34.0,-99.9,-100.00,SSW,208,4.0,4.0,-999,-99.99,,,-99.99,,2013-10-13 11:52:00,
2013-10-13 06:00:00,35.0,-99.9,-100.00,West,278,2.0,3.0,-999,-99.99,,,-99.99,,2013-10-13 12:00:00,
2013-10-13 06:42:00,35.0,-99.9,-100.00,West,278,2.0,3.0,-999,-99.99,,,-99.99,,2013-10-13 12:42:00,
2013-10-13 06:53:00,35.0,-99.9,-100.00,West,278,2.0,3.0,-999,-99.99,,,-99.99,,2013-10-13 12:53:00,
2013-10-13 07:00:00,36.0,-99.9,-100.00,NNW,336,1.0,1.0,-999,-99.99,,,-99.99,,2013-10-13 13:00:00,
2013-10-13 07:42:00,36.0,-99.9,-100.00,NNW,336,1.0,1.0,-999,-99.99,,,-99.99,,2013-10-13 13:42:00,
2013-10-13 07:52:00,36.0,-99.9,-100.00,NNW,336,1.0,1.0,-999,-99.99,,,-99.99,,2013-10-13 13:52:00,
2013-10-13 08:00:00,36.0,-99.9,-100.00,West,272,1.0,1.0,-999,-99.99,,,-99.99,,2013-10-13 14:00:00,
2013-10-13 08:42:00,36.0,-99.9,-100.00,West,272,1.0,1.0,-999,-99.99,,,-99.99,,2013-10-13 14:42:00,
2013-10-13 08:52:00,36.0,-99.9,-100.00,West,272,1.0,1.0,-999,-99.99,,,-99.99,,2013-10-13 14:52:00,
2013-10-13 09:00:00,37.0,-99.9,-100.00,ENE,70,2.0,3.0,-999,-99.99,,,-99.99,,2013-10-13 15:00:00,
2013-10-13 09:43:00,37.0,-99.9,-100.00,ENE,70,2.0,3.0,-999,-99.99,,,-99.99,,2013-10-13 15:43:00,
2013-10-13 09:54:00,37.0,-99.9,-100.00,ENE,70,2.0,3.0,-999,-99.99,,,-99.99,,2013-10-13 15:54:00,
2013-10-13 10:00:00,38.0,-99.9,-100.00,NE,36,3.0,4.0,-999,-99.99,,,-99.99,,2013-10-13 16:00:00,
2013-10-13 10:43:00,38.0,-99.9,-100.00,NE,36,3.0,4.0,-999,-99.99,,,-99.99,,2013-10-13 16:43:00,
2013-10-13 10:55:00,38.0,-99.9,-100.00,NE,36,3.0,4.0,-999,-99.99,,,-99.99,,2013-10-13 16:55:00,
2013-10-13 11:00:00,39.0,-99.9,-100.00,ENE,78,2.0,4.0,-999,-99.99,,,-99.99,,2013-10-13 17:00:00,
2013-10-13 11:43:00,39.0,-99.9,-100.00,ENE,78,2.0,4.0,-999,-99.99,,,-99.99,,2013-10-13 17:43:00,
2013-10-13 11:53:00,39.0,-99.9,-100.00,ENE,78,2.0,4.0,-999,-99.99,,,-99.99,,2013-10-13 17:53:00,
2013-10-13 12:00:00,41.0,-99.9,-100.00,ENE,72,1.0,2.0,-999,-99.99,,,-99.99,,2013-10-13 18:00:00,
2013-10-13 12:42:00,41.0,-99.9,-100.00,ENE,72,1.0,2.0,-999,-99.99,,,-99.99,,2013-10-13 18:42:00,
2013-10-13 12:52:00,41.0,-99.9,-100.00,ENE,72,1.0,2.0,-999,-99.99,,,-99.99,,2013-10-13 18:52:00,
2013-10-13 13:00:00,42.0,-99.9,-100.00,ENE,78,5.0,6.0,-999,-99.99,,,-99.99,,2013-10-13 19:00:00,
2013-10-13 13:22:00,42.0,-99.9,-100.00,ENE,78,5.0,6.0,-999,-99.99,,,-99.99,,2013-10-13 19:22:00,
2013-10-13 13:32:00,42.0,-99.9,-100.00,ENE,78,5.0,6.0,-999,-99.99,,,-99.99,,2013-10-13 19:32:00,
2013-10-13 13:42:00,42.0,-99.9,-100.00,ENE,78,5.0,6.0,-999,-99.99,,,-99.99,,2013-10-13 19:42:00,
2013-10-13 13:53:00,42.0,-99.9,-100.00,ENE,78,5.0,6.0,-999,-99.99,,,-99.99,,2013-10-13 19:53:00,
2013-10-13 14:00:00,39.0,-99.9,-100.00,NE,42,9.0,11.0,-999,-99.99,,,-99.99,,2013-10-13 20:00:00,
2013-10-13 14:43:00,39.0,-99.9,-100.00,NE,42,9.0,11.0,-999,-99.99,,,-99.99,,2013-10-13 20:43:00,
2013-10-13 14:52:00,39.0,-99.9,-100.00,NE,42,9.0,11.0,-999,-99.99,,,-99.99,,2013-10-13 20:52:00,
2013-10-13 15:00:00,39.0,-99.9,-100.00,NE,46,6.0,8.0,-999,-99.99,,,-99.99,,2013-10-13 21:00:00,
2013-10-13 15:44:00,39.0,-99.9,-100.00,NE,46,6.0,8.0,-999,-99.99,,,-99.99,,2013-10-13 21:44:00,
2013-10-13 15:55:00,39.0,-99.9,-100.00,NE,46,6.0,8.0,-999,-99.99,,,-99.99,,2013-10-13 21:55:00,
2013-10-13 16:00:00,39.0,-99.9,-100.00,NE,47,7.0,8.0,-999,-99.99,,,-99.99,,2013-10-13 22:00:00,
2013-10-13 16:24:00,39.0,-99.9,-100.00,NE,47,7.0,8.0,-999,-99.99,,,-99.99,,2013-10-13 22:24:00,
2013-10-13 16:33:00,39.0,-99.9,-100.00,NE,47,7.0,8.0,-999,-99.99,,,-99.99,,2013-10-13 22:33:00,
2013-10-13 16:43:00,39.0,-99.9,-100.00,NE,47,7.0,8.0,-999,-99.99,,,-99.99,,2013-10-13 22:43:00,
2013-10-13 16:53:00,39.0,-99.9,-100.00,NE,47,7.0,8.0,-999,-99.99,,,-99.99,,2013-10-13 22:53:00,
2013-10-13 17:00:00,38.0,-99.9,-100.00,NNE,30,5.0,7.0,-999,-99.99,,,-99.99,,2013-10-13 23:00:00,
2013-10-13 17:42:00,38.0,-99.9,-100.00,NNE,30,5.0,7.0,-999,-99.99,,,-99.99,,2013-10-13 23:42:00,
2013-10-13 17:52:00,38.0,-99.9,-100.00,NNE,30,5.0,7.0,-999,-99.99,,,-99.99,,2013-10-13 23:52:00,
2013-10-13 18:00:00,38.0,-99.9,-100.00,NE,44,2.0,3.0,-999,-99.99,,,-99.99,,2013-10-14 00:00:00,
2013-10-13 18:22:00,38.0,-99.9,-100.00,NE,44,2.0,3.0,-999,-99.99,,,-99.99,,2013-10-14 00:22:00,
2013-10-13 18:32:00,38.0,-99.9,-100.00,NE,44,2.0,3.0,-999,-99.99,,,-99.99,,2013-10-14 00:32:00,
2013-10-13 18:42:00,38.0,-99.9,-100.00,NE,44,2.0,3.0,-999,-99.99,,,-99.99,,2013-10-14 00:42:00,
2013-10-13 18:52:00,38.0,-99.9,-100.00,NE,44,2.0,3.0,-999,-99.99,,,-99.99,,2013-10-14 00:52:00,
2013-10-13 19:00:00,38.0,-99.9,-100.00,ESE,104,2.0,3.0,-999,-99.99,,,-99.99,,2013-10-14 01:00:00,
2013-10-13 19:42:00,38.0,-99.9,-100.00,ESE,104,2.0,3.0,-999,-99.99,,,-99.99,,2013-10-14 01:42:00,
2013-10-13 19:52:00,38.0,-99.9,-100.00,ESE,104,2.0,3.0,-999,-99.99,,,-99.99,,2013-10-14 01:52:00,
2013-10-13 20:00:00,37.0,-99.9,-100.00,NNE,25,6.0,8.0,-999,-99.99,,,-99.99,,2013-10-14 02:00:00,
2013-10-13 20:42:00,37.0,-99.9,-100.00,NNE,25,6.0,8.0,-999,-99.99,,,-99.99,,2013-10-14 02:42:00,
2013-10-13 20:52:00,37.0,-99.9,-100.00,NNE,25,6.0,8.0,-999,-99.99,,,-99.99,,2013-10-14 02:52:00,
2013-10-13 21:00:00,36.0,-99.9,-100.00,ENE,67,3.0,5.0,-999,-99.99,,,-99.99,,2013-10-14 03:00:00,
2013-10-13 21:44:00,36.0,-99.9,-100.00,ENE,67,3.0,5.0,-999,-99.99,,,-99.99,,2013-10-14 03:44:00,
2013-10-13 21:55:00,36.0,-99.9,-100.00,ENE,67,3.0,5.0,-999,-99.99,,,-99.99,,2013-10-14 03:55:00,
2013-10-13 22:00:00,35.0,-99.9,-100.00,NE,53,8.0,10.0,-999,-99.99,,,-99.99,,2013-10-14 04:00:00,
2013-10-13 22:44:00,35.0,-99.9,-100.00,NE,53,8.0,10.0,-999,-99.99,,,-99.99,,2013-10-14 04:44:00,
2013-10-13 22:54:00,35.0,-99.9,-100.00,NE,53,8.0,10.0,-999,-99.99,,,-99.99,,2013-10-14 04:54:00,
2013-10-13 23:00:00,35.0,-99.9,-100.00,East,98,6.0,7.0,-999,-99.99,,,-99.99,,2013-10-14 05:00:00,
2013-10-13 23:43:00,35.0,-99.9,-100.00,East,98,6.0,7.0,-999,-99.99,,,-99.99,,2013-10-14 05:43:00,
2013-10-13 23:53:00,35.0,-99.9,-100.00,East,98,6.0,7.0,-999,-99.99,,,-99.99,,2013-10-14 05:53:00,